Home   Weather   Freising   Past weeks

Flag for Germany Past Weather in Freising, Bavaria, Germany — Yesterday and Last 2 Weeks

Now
37 °F

Passing clouds.


Feels Like: 31 °F
Forecast: 32 / 45 °F
Wind: 8 mph from West

Location: Munich / Franz Josef Strauss Airport

Current Time: Feb 24, 2017 at 10:59:31 pm

Latest Report: Feb 24, 2017 at 10:20 pm


Visibility: N/A

Pressure: 30.07 "Hg

Humidity: 81%

Dew Point: 32 °F

Location of FreisingLocation

Past Weather in Freising — Graph

°F

Freising Temperature Yesterday

Maximum temperature yesterday: 64 °F (at 1:50 pm)
Minimum temperature yesterday: 45 °F (at 5:20 am)
Average temperature yesterday: 54 °F

High & Low Weather Summary for the Past Weeks

 TemperatureHumidityPressure
High64 °F (Feb 23, 1:50 pm)100% (Feb 11, 4:50 am)30.57 "Hg (Feb 11, 4:50 am)
Low21 °F (Feb 11, 5:50 am)24% (Feb 23, 1:50 pm)29.50 "Hg (Feb 23, 4:50 pm)
Average38 °F81%30.17 "Hg
* Reported Feb 9 9:20 pm — Feb 24 9:50 pm, Freising, Weather by CustomWeather, © 2017

Note: Actual official high and low records may vary slightly from our data, if they occured in-between our weather recording intervals... More about our weather records

Advertising

Freising Weather History for the Previous 24 Hours

Scroll right to see more
 ConditionsComfort  
Time TempWeatherWind HumidityBarometerVisibility
9:50 pm
Fri, Feb 24
37 °FPassing clouds.8 mph81%30.07 "HgN/A
9:20 pm37 °FPassing clouds.9 mph81%30.07 "HgN/A
8:50 pm37 °FPassing clouds.9 mph87%30.04 "HgN/A
8:20 pm37 °FPassing clouds.8 mph87%30.04 "HgN/A
7:50 pm39 °FPassing clouds.9 mph75%30.01 "HgN/A
7:20 pm39 °FPassing clouds.6 mph70%30.01 "HgN/A
6:50 pm41 °FPassing clouds.6 mph53%29.98 "HgN/A
6:20 pm41 °FPassing clouds.5 mph53%29.98 "HgN/A
5:50 pm41 °FPassing clouds.7 mph53%29.95 "HgN/A
5:20 pm41 °FScattered clouds.9 mph53%29.92 "HgN/A
4:50 pm43 °FSunny.14 mph46%29.92 "Hg10 mi
4:20 pm43 °FSunny.15 mph49%29.89 "Hg10 mi
3:50 pm43 °FPartly sunny.12 mph49%29.89 "HgN/A
3:20 pm43 °FScattered showers. Partly sunny.13 mph49%29.89 "HgN/A
2:50 pm43 °FSprinkles. Scattered clouds.15 mph57%29.86 "HgN/A
2:20 pm43 °FSprinkles. Scattered clouds.16 mph61%29.86 "HgN/A
1:50 pm43 °FSprinkles. Broken clouds.14 mph61%29.86 "HgN/A
1:20 pm43 °FScattered showers. Partly sunny.13 mph61%29.86 "HgN/A
12:50 pm45 °FSprinkles. Scattered clouds.13 mph71%29.86 "HgN/A
12:20 pm39 °FSprinkles. Scattered clouds.22 mph81%29.86 "HgN/A
11:50 am41 °FSprinkles. Broken clouds.15 mph66%29.86 "HgN/A
11:20 am43 °FSprinkles. Broken clouds.20 mph71%29.86 "HgN/A
10:50 am41 °FBroken clouds.14 mph81%29.86 "HgN/A
10:20 am39 °FSprinkles. Broken clouds.17 mph81%29.86 "HgN/A
9:50 am37 °FSprinkles. Broken clouds.15 mph87%29.86 "HgN/A
9:20 am39 °FSprinkles. Partly sunny.15 mph75%29.83 "HgN/A
8:50 am41 °FSprinkles. Partly sunny.17 mph61%29.80 "HgN/A
8:20 am43 °FScattered showers. Broken clouds.18 mph57%29.80 "HgN/A
7:50 am43 °FPartly sunny.16 mph53%29.80 "HgN/A
7:20 am43 °FBroken clouds.20 mph57%29.77 "HgN/A
6:50 am43 °FPartly cloudy.21 mph53%29.74 "HgN/A
6:20 am45 °FPassing clouds.23 mph57%29.74 "HgN/A
5:50 am45 °FPartly cloudy.14 mph61%29.71 "HgN/A
5:20 am45 °FLight rain. Passing clouds.15 mph61%29.68 "HgN/A
4:50 am45 °FPassing clouds.18 mph61%29.65 "HgN/A
4:20 am45 °FPartly cloudy.22 mph61%29.62 "HgN/A
3:50 am45 °FPartly cloudy.22 mph61%29.62 "HgN/A
3:20 am45 °FLight rain. Partly cloudy.26 mph61%29.62 "HgN/A
2:50 am45 °FLight rain. Passing clouds.20 mph66%29.59 "HgN/A
2:20 am45 °FLight rain. Passing clouds.23 mph66%29.59 "HgN/A
1:50 am45 °FLight rain. Passing clouds.24 mph71%29.59 "HgN/A
1:20 am48 °FPartly cloudy.21 mph66%29.56 "HgN/A
12:50 am54 °FClear.29 mph51%29.53 "Hg10 mi
12:20 am54 °FClear.26 mph51%29.53 "Hg10 mi
11:50 pm
Thu, Feb 23
54 °FClear.20 mph47%29.53 "Hg10 mi
11:20 pm54 °FClear.22 mph44%29.53 "Hg10 mi
10:50 pm55 °FClear.28 mph38%29.53 "Hg10 mi
10:20 pm57 °FClear.26 mph36%29.53 "Hg10 mi
Weather by CustomWeather, © 2017

See weather overviewHow to use our weather pages